[[{"header":{"parameterUnit":"m.s-1","parameterCategory":1,"la1":30.2991,"la2":30.254,"lo1":-89.0895,"lo2":-89.0444,"dy":0.0017,"dx":0.0017,"nx":28,"ny":28,"refTime":"2023-08-24T03:00:00:Z","depth":0,"parameterNumber":2,"parameterNumberName":"U-component_of_WINDS"},"data":[0,0,0,0,0,0,0,0,0,0,0,0,0,0,0,0,0,0,0,0,0,0,0,0,0,0,0,0,0,0,0,0,0,0,0,0,0,0,0,0,0,0,0,0,0,0,0,0,0,0,0,0,0,0,0,0,0,0,2.3402,2.3403,0,2.3529,2.353,2.3532,2.356,2.3559,2.3558,2.3558,2.3685,2.3689,2.3693,0,0,0,0,0,0,0,0,0,0,0,0,0,2.3181,2.3185,2.3402,2.3403,2.3405,2.3528,2.353,2.3532,2.356,2.3559,2.3558,2.3557,2.3684,2.3688,2.3694,0,0,0,0,0,0,0,0,0,0,0,0,0,2.3289,2.3186,2.3402,2.3434,2.3438,2.3528,2.353,2.3532,2.3561,2.3559,2.3558,2.3557,2.3682,2.3688,2.3694,2.376,0,0,2.3714,2.3716,0,0,0,0,0,0,0,0,2.3283,2.3297,2.3428,2.3432,2.3437,2.3527,2.3499,2.3608,2.3561,2.3514,2.3558,2.3556,2.3633,2.3644,2.367,2.3766,2.3771,2.3714,2.3718,2.3721,2.3722,0,0,0,0,0,0,0,2.3275,2.3292,2.3452,2.343,2.3435,2.3441,2.3455,2.352,2.3579,2.3518,2.352,2.3535,2.3636,2.3664,2.3673,2.3773,2.3714,2.3719,2.3723,2.3726,2.3926,2.3928,0,0,0,0,0,0,2.3263,2.3285,2.3448,2.3456,2.3355,2.3446,2.3462,2.35,2.3579,2.359,2.3536,2.3536,2.3654,2.3666,2.3678,2.3758,2.3721,2.3726,2.373,2.3925,2.3926,2.3928,0,0,0,0,0,0,2.3258,2.3277,2.3443,2.3371,2.3393,2.3452,2.3494,2.3503,2.3531,2.3593,2.3603,2.3555,2.3653,2.3669,2.3739,2.3763,2.3729,2.3735,2.3923,2.3925,2.3927,2.392,0,0,0,0,0,0,2.3251,2.3275,2.3301,2.3372,2.3397,2.3502,2.3495,2.3506,2.3542,2.3543,2.3613,2.3623,2.3653,2.3729,2.3745,2.3771,2.374,2.3921,2.3924,2.3927,2.3918,2.3921,2.3924,0,0,0,0,0,2.3243,2.3294,2.3302,2.3322,2.3431,2.3504,2.3518,2.3553,2.3544,2.357,2.361,2.3621,2.3758,2.3736,2.3754,2.3782,2.3919,2.3923,2.3926,2.3916,2.3921,2.3924,0,0,0,0,0,0,2.3224,2.3304,2.3314,2.3389,2.344,2.3509,2.3543,2.3557,2.361,2.3608,2.3649,2.3664,2.3731,2.3764,2.3738,2.3849,2.3838,2.3846,2.3825,2.3829,2.3832,2.3822,2.3745,0,0,0,0,0,2.3229,2.3282,2.3349,2.3409,2.3433,2.3484,2.3517,2.3539,2.3593,2.3614,2.3658,2.3709,2.3763,2.3798,2.3852,2.3923,2.3938,2.3951,2.3955,2.3957,2.3962,2.4,2.4006,2.3939,2.3939,2.3939,0,0,2.3238,2.3289,2.332,2.3406,2.3448,2.3501,2.3501,2.3558,2.3597,2.3622,2.369,2.3725,2.3784,2.3854,2.3887,2.3883,2.3984,2.3961,2.3963,2.3967,2.4004,2.4011,2.4016,2.3942,2.3941,2.3941,0,0,2.3283,2.3327,2.3381,2.3423,2.3486,2.3519,2.3532,2.3599,2.3623,2.3692,2.3711,2.3758,2.3852,2.3893,2.3925,2.3984,2.3996,2.4001,2.4017,2.4053,2.4059,2.4063,2.4082,2.4089,2.4006,2.4006,2.4006,0,2.3287,2.3369,2.3407,2.3462,2.3498,2.3524,2.3578,2.3617,2.3694,2.3717,2.3713,2.3829,2.3871,2.395,2.3964,2.3991,2.4005,2.3992,2.4055,2.406,2.4065,2.4084,2.4091,2.4006,2.4006,2.4006,2.4006,0,2.3369,2.3425,2.3461,2.3535,2.3576,2.363,2.3675,2.3711,2.373,2.3763,2.3832,2.3883,2.3947,2.3968,2.3987,2.4049,2.4045,2.4047,2.4037,2.4071,2.4089,2.4097,2.4006,2.4006,2.4006,2.4006,0,0,2.3404,2.3499,2.3511,2.3544,2.3615,2.3659,2.3714,2.3777,2.3806,2.3858,2.3904,2.3982,2.3984,2.4022,2.4046,2.4078,2.4119,2.4076,2.4078,2.4081,2.4188,2.4185,2.4192,2.4128,2.4129,2.413,2.4183,0,2.3456,2.3556,2.3591,2.3672,2.3723,2.3749,2.3796,2.3844,2.3876,2.3924,2.3959,2.4013,2.4013,2.4035,2.4069,2.4107,2.4141,2.4104,2.4168,2.417,2.4151,2.4202,2.4199,2.4246,2.419,2.4191,2.4192,0,2.353,2.3583,2.3669,2.3733,2.3756,2.3798,2.3857,2.3903,2.3958,2.3979,2.402,2.4041,2.4098,2.4086,2.4163,2.4137,2.4166,2.4189,2.4191,2.4197,2.4182,2.4207,2.4262,2.4268,2.4204,2.4203,2.4202,0,2.3544,2.3637,2.3701,2.3729,2.3805,2.3834,2.3867,2.392,2.3955,2.4007,2.403,2.4087,2.4118,2.4162,2.4198,2.4186,2.4271,2.4263,2.4289,2.4288,2.4304,2.4303,2.4362,2.4326,2.4326,2.4326,2.4326,0,2.3597,2.3648,2.3708,2.3747,2.3805,2.3844,2.39,2.3934,2.3981,2.4026,2.4052,2.4093,2.4139,2.4186,2.4214,2.4273,2.4287,2.4305,2.4311,2.4302,2.4299,2.432,2.4316,2.4328,2.4327,2.4327,2.4327,0,2.3622,2.3664,2.3735,2.3801,2.3819,2.3859,2.3915,2.3953,2.3986,2.4042,2.4058,2.411,2.4166,2.4207,2.428,2.4299,2.4361,2.4369,2.4342,2.4345,2.4369,2.4365,2.4442,2.4453,2.4411,2.4411,2.4412,0,2.3652,2.3692,2.3763,2.3795,2.3828,2.388,2.3915,2.3956,2.3992,2.4056,2.4086,2.4144,2.4193,2.4281,2.4325,2.438,2.4388,2.4411,2.4396,2.4384,2.4386,2.4382,2.4386,2.4412,2.4413,2.4413,2.4413,0,2.37,2.3719,2.377,2.3828,2.387,2.3918,2.3966,2.399,2.4039,2.4078,2.4136,2.4174,2.4248,2.4304,2.4364,2.4397,2.4412,2.4418,2.4426,2.4416,2.4398,2.4406,2.4346,2.4415,2.4415,2.4415,2.4415,2.4415,2.3727,2.3763,2.3818,2.3874,2.3914,2.3958,2.3997,2.4035,2.4084,2.4148,2.4169,2.4228,2.428,2.4362,2.4396,2.4442,2.4441,2.4454,2.4457,2.4459,2.4457,2.4392,2.4453,2.4453,2.4453,2.4453,2.4453,0,2.3775,2.3811,2.3862,2.3928,2.3972,2.3984,2.4037,2.4072,2.4125,2.4173,2.422,2.4286,2.4341,2.4388,2.4445,2.4473,2.4482,2.4486,2.4484,2.4491,2.4456,2.4442,2.4478,2.4478,2.4478,2.4478,2.4478,2.4478,2.3804,2.3866,2.3891,2.3972,2.4008,2.4067,2.4096,2.4136,2.4174,2.4247,2.4293,2.4324,2.4371,2.4432,2.4482,2.4495,2.4514,2.4516,2.453,2.4497,2.4493,2.449,2.4477,2.4521,2.4521,2.4561,2.4561,2.4562]},{"header":{"parameterUnit":"m.s-1","parameterCategory":1,"la1":30.2991,"la2":30.254,"lo1":-89.0895,"lo2":-89.0444,"dy":0.0017,"dx":0.0017,"nx":28,"ny":28,"refTime":"2023-08-24T03:00:00:Z","depth":0,"parameterNumber":3,"parameterNumberName":"V-component_of_WINDS"},"data":[0,0,0,0,0,0,0,0,0,0,0,0,0,0,0,0,0,0,0,0,0,0,0,0,0,0,0,0,0,0,0,0,0,0,0,0,0,0,0,0,0,0,0,0,0,0,0,0,0,0,0,0,0,0,0,0,0,0,3.6402,3.6402,0,3.6361,3.6361,3.636,3.6281,3.6279,3.6277,3.6276,3.6235,3.6235,3.6235,0,0,0,0,0,0,0,0,0,0,0,0,0,3.6412,3.6412,3.6402,3.6402,3.6401,3.6361,3.6361,3.636,3.6281,3.6279,3.6277,3.6275,3.6234,3.6235,3.6235,0,0,0,0,0,0,0,0,0,0,0,0,0,3.6393,3.6412,3.6402,3.6357,3.6352,3.6362,3.6361,3.636,3.6281,3.6279,3.6276,3.6274,3.6234,3.6235,3.6235,3.6286,0,0,3.6237,3.6237,0,0,0,0,0,0,0,0,3.6394,3.6393,3.6364,3.636,3.6355,3.6324,3.6349,3.6335,3.6282,3.6308,3.6276,3.6273,3.6266,3.6264,3.6261,3.6284,3.6282,3.6237,3.6237,3.6238,3.6238,0,0,0,0,0,0,0,3.6396,3.6394,3.6386,3.6364,3.6358,3.6338,3.6333,3.6346,3.6301,3.6306,3.63,3.6296,3.6263,3.6261,3.626,3.6282,3.6237,3.6238,3.6238,3.6238,3.6341,3.6344,0,0,0,0,0,0,3.6403,3.6396,3.6387,3.6385,3.6369,3.634,3.6334,3.6336,3.6301,3.6293,3.6298,3.6292,3.6261,3.6259,3.6258,3.6313,3.6238,3.6238,3.6238,3.6339,3.6342,3.6345,0,0,0,0,0,0,3.6404,3.6403,3.6389,3.6389,3.6385,3.6342,3.6345,3.6337,3.6334,3.6295,3.6286,3.6304,3.6259,3.6257,3.6279,3.6311,3.6238,3.6239,3.6336,3.634,3.6343,3.6425,0,0,0,0,0,0,3.6405,3.6404,3.6423,3.639,3.6386,3.6411,3.6347,3.6337,3.6335,3.6328,3.6298,3.6291,3.6257,3.6279,3.628,3.631,3.6239,3.6333,3.6338,3.6342,3.6419,3.6431,3.6441,0,0,0,0,0,3.6405,3.6448,3.6424,3.6424,3.6408,3.6413,3.6411,3.6371,3.6338,3.6357,3.6331,3.6292,3.6308,3.6282,3.6282,3.6313,3.6331,3.6336,3.6342,3.6414,3.6429,3.6441,0,0,0,0,0,0,3.6487,3.6443,3.6416,3.645,3.6436,3.64,3.6421,3.6388,3.6383,3.6376,3.6327,3.6321,3.6348,3.6333,3.6305,3.6359,3.6313,3.6319,3.6368,3.6381,3.6392,3.6394,3.624,0,0,0,0,0,3.6509,3.6516,3.6477,3.6511,3.6505,3.6465,3.6465,3.6436,3.6419,3.6413,3.6389,3.6375,3.6376,3.6378,3.6377,3.6417,3.6409,3.6439,3.645,3.6459,3.6464,3.6482,3.6494,3.6362,3.6362,3.6362,0,0,3.6554,3.6531,3.6539,3.6527,3.6512,3.6521,3.646,3.6472,3.6478,3.6415,3.6433,3.6416,3.6396,3.6427,3.6439,3.6415,3.6498,3.6466,3.6473,3.6473,3.6489,3.6501,3.6512,3.6366,3.6365,3.6365,0,0,3.664,3.6624,3.6649,3.6636,3.6615,3.6587,3.6594,3.6563,3.6548,3.6566,3.6518,3.6525,3.6529,3.6516,3.651,3.6591,3.6555,3.6593,3.6649,3.6667,3.6677,3.6686,3.6713,3.6724,3.6598,3.6598,3.6598,0,3.6699,3.6709,3.6666,3.6681,3.6676,3.662,3.6644,3.6634,3.6614,3.6612,3.6585,3.6587,3.6571,3.6596,3.6616,3.6614,3.6619,3.6595,3.6679,3.6688,3.6695,3.6721,3.6731,3.6603,3.6602,3.6602,3.6601,0,3.6782,3.679,3.6813,3.6794,3.6792,3.6812,3.6772,3.6775,3.6746,3.6722,3.674,3.6718,3.671,3.6715,3.6687,3.6736,3.6722,3.6688,3.664,3.6713,3.6736,3.6746,3.6609,3.6608,3.6606,3.6605,0,0,3.6917,3.6874,3.6883,3.6873,3.6846,3.6851,3.6868,3.6861,3.6864,3.6852,3.6864,3.6868,3.6837,3.683,3.68,3.6817,3.688,3.678,3.6779,3.6798,3.6931,3.6955,3.6967,3.6856,3.6858,3.6859,3.6932,0,3.6996,3.7021,3.6983,3.7017,3.7024,3.697,3.6984,3.6969,3.6947,3.6949,3.6924,3.6927,3.6886,3.6881,3.6895,3.6869,3.6905,3.6864,3.6865,3.6866,3.687,3.6979,3.7005,3.7075,3.6941,3.6942,3.6943,0,3.7091,3.7083,3.7118,3.7087,3.7088,3.7102,3.7091,3.7094,3.7075,3.7058,3.705,3.7014,3.7028,3.6983,3.7,3.6973,3.6971,3.6959,3.696,3.6958,3.6908,3.6978,3.7097,3.7107,3.6957,3.6956,3.6955,0,3.7184,3.7182,3.7202,3.7196,3.7161,3.7171,3.7157,3.7136,3.7134,3.7125,3.7122,3.7116,3.7112,3.7107,3.707,3.7041,3.7091,3.7043,3.7076,3.7077,3.7087,3.7087,3.7206,3.709,3.709,3.709,3.7089,0,3.7274,3.7297,3.7243,3.7255,3.7279,3.7235,3.726,3.724,3.7222,3.7229,3.7183,3.719,3.7142,3.7144,3.7115,3.7133,3.7132,3.7118,3.7109,3.7121,3.7122,3.7118,3.7111,3.7092,3.7092,3.7091,3.7091,0,3.7381,3.7346,3.7364,3.733,3.7321,3.734,3.731,3.732,3.7295,3.7304,3.7304,3.7264,3.7264,3.7227,3.722,3.7201,3.723,3.7214,3.7236,3.723,3.7264,3.7261,3.7383,3.7396,3.7274,3.7275,3.7276,0,3.7441,3.7457,3.7424,3.7425,3.7413,3.7416,3.7413,3.7371,3.7369,3.7349,3.7361,3.7357,3.7351,3.7354,3.7324,3.7318,3.73,3.7343,3.7299,3.7309,3.7298,3.7297,3.7298,3.7352,3.7354,3.7355,3.7356,0,3.7549,3.7531,3.7528,3.752,3.7518,3.7509,3.7497,3.7501,3.7454,3.7455,3.7454,3.745,3.7442,3.7439,3.7427,3.7412,3.7376,3.7371,3.7377,3.7388,3.74,3.7392,3.726,3.7368,3.7367,3.7366,3.7365,3.7365,3.7632,3.7644,3.7622,3.7621,3.7607,3.7597,3.7604,3.758,3.7578,3.7568,3.7543,3.7546,3.7526,3.7506,3.7494,3.7496,3.7474,3.7484,3.7487,3.7489,3.7495,3.7401,3.7494,3.7493,3.7493,3.7493,3.7492,0,3.7737,3.772,3.7719,3.7704,3.7703,3.767,3.7655,3.7656,3.7659,3.7643,3.7639,3.7637,3.7633,3.7603,3.7596,3.7603,3.7586,3.7602,3.76,3.7597,3.7516,3.751,3.7615,3.7615,3.7615,3.7615,3.7615,3.7615,3.779,3.7807,3.7786,3.7796,3.7779,3.7781,3.7776,3.7766,3.7753,3.7753,3.775,3.773,3.7708,3.7698,3.7693,3.7684,3.7683,3.7704,3.769,3.7615,3.7603,3.7591,3.7585,3.7705,3.7705,3.777,3.777,3.7771]}]]